QPF
0.02 0.03 0.03 0.04 0.04 0.04 0.03 0.03 0.03 0.04 0.05 0.03 0.03 0.03 0.03 0.03 0.02 0.03 0.02 0.02 0.01 0.01 0.01 0.03 0.05 0.06 0.04 0.04 0.05 0.05 0.05 0.05 0.06 0.07 0.08 0.08 0.07 0.05
0.03 0.03 0.03 0.03 0.04 0.04 0.03 0.03 0.02 0.02 0.03 0.03 0.03 0.02 0.02 0.03 0.03 0.03 0.03 0.03 0.02 0.01 0.01 0.01 0.02 0.04 0.06 0.05 0.04 0.04 0.04 0.04 0.05 0.06 0.06 0.07 0.07 0.06
0.03 0.03 0.03 0.02 0.02 0.03 0.03 0.03 0.03 0.03 0.02 0.02 0.02 0.02 0.02 0.02 0.02 0.02 0.03 0.03 0.03 0.03 0.02 0.02 0.02 0.03 0.04 0.08 0.08 0.06 0.05 0.05 0.05 0.05 0.06 0.06 0.06 0.05
0.02 0.02 0.03 0.02 0.03 0.03 0.02 0.02 0.02 0.02 0.02 0.02 0.02 0.02 0.02 0.02 0.02 0.03 0.03 0.02 0.02 0.03 0.02 0.02 0.02 0.03 0.04 0.05 0.10 0.11 0.08 0.06 0.06 0.06 0.06 0.06 0.05 0.04
0.03 0.02 0.03 0.03 0.03 0.03 0.03 0.03 0.02 0.02 0.02 0.02 0.03 0.03 0.03 0.03 0.02 0.02 0.03 0.03 0.02 0.02 0.02 0.02 0.02 0.02 0.03 0.04 0.06 0.09 0.11 0.10 0.08 0.08 0.07 0.07 0.06 0.04
0.02 0.02 0.02 0.02 0.03 0.03 0.03 0.03 0.03 0.02 0.02 0.03 0.02 0.03 0.04 0.04 0.04 0.03 0.03 0.03 0.03 0.03 0.03 0.03 0.02 0.02 0.02 0.03 0.03 0.05 0.08 0.10 0.09 0.08 0.07 0.06 0.05 0.05
0.02 0.01 0.01 0.02 0.02 0.03 0.03 0.03 0.03 0.03 0.03 0.03 0.03 0.03 0.03 0.03 0.04 0.04 0.04 0.03 0.03 0.04 0.04 0.03 0.03 0.02 0.02 0.02 0.02 0.03 0.04 0.05 0.06 0.07 0.06 0.04 0.04 0.04
0.03 0.02 0.02 0.02 0.02 0.03 0.03 0.03 0.03 0.04 0.03 0.03 0.03 0.03 0.03 0.03 0.04 0.04 0.04 0.03 0.03 0.03 0.04 0.04 0.03 0.03 0.02 0.01 0.01 0.02 0.03 0.03 0.03 0.04 0.05 0.04 0.03 0.03
0.03 0.03 0.03 0.02 0.02 0.02 0.02 0.03 0.03 0.03 0.04 0.03 0.03 0.02 0.02 0.02 0.03 0.04 0.04 0.04 0.03 0.03 0.03 0.04 0.04 0.04 0.03 0.02 0.02 0.02 0.02 0.02 0.02 0.02 0.02 0.03 0.03 0.03
0.04 0.04 0.03 0.03 0.03 0.02 0.03 0.03 0.03 0.03 0.03 0.03 0.03 0.02 0.02 0.02 0.02 0.03 0.04 0.04 0.03 0.03 0.04 0.04 0.04 0.04 0.04 0.03 0.02 0.02 0.02 0.02 0.02 0.02 0.02 0.02 0.02 0.02
0.03 0.03 0.04 0.03 0.03 0.04 0.04 0.04 0.04 0.03 0.03 0.03 0.03 0.02 0.03 0.03 0.03 0.04 0.05 0.05 0.04 0.03 0.04 0.05 0.04 0.04 0.04 0.04 0.03 0.03 0.03 0.03 0.02 0.02 0.01 0.01 0.01 0.01
0.03 0.03 0.04 0.04 0.04 0.04 0.04 0.05 0.04 0.04 0.03 0.04 0.03 0.03 0.02 0.02 0.03 0.04 0.05 0.05 0.04 0.04 0.04 0.05 0.04 0.05 0.05 0.05 0.04 0.04 0.04 0.05 0.04 0.02 0.02 0.01 0.01 0.01
0.03 0.03 0.03 0.04 0.04 0.04 0.04 0.05 0.05 0.04 0.04 0.04 0.04 0.04 0.04 0.03 0.03 0.03 0.05 0.05 0.05 0.05 0.04 0.05 0.05 0.05 0.06 0.05 0.05 0.06 0.06 0.05 0.06 0.04 0.03 0.02 0.01 0.01
0.04 0.03 0.04 0.04 0.05 0.05 0.05 0.05 0.05 0.06 0.06 0.06 0.06 0.05 0.05 0.05 0.04 0.03 0.04 0.04 0.04 0.05 0.05 0.05 0.06 0.06 0.07 0.06 0.05 0.05 0.07 0.06 0.06 0.06 0.05 0.05 0.03 0.02
0.05 0.05 0.05 0.06 0.06 0.06 0.05 0.05 0.05 0.05 0.06 0.06 0.06 0.05 0.05 0.04 0.03 0.03 0.03 0.03 0.03 0.04 0.04 0.05 0.05 0.05 0.05 0.06 0.05 0.05 0.06 0.06 0.06 0.07 0.07 0.06 0.05 0.03
0.06 0.06 0.05 0.06 0.06 0.07 0.06 0.05 0.04 0.04 0.05 0.04 0.04 0.04 0.05 0.04 0.04 0.03 0.03 0.03 0.03 0.03 0.03 0.03 0.03 0.04 0.04 0.04 0.05 0.04 0.04 0.05 0.06 0.06 0.07 0.07 0.06 0.03
0.05 0.07 0.07 0.06 0.06 0.06 0.05 0.05 0.05 0.04 0.04 0.04 0.04 0.04 0.04 0.05 0.04 0.03 0.03 0.03 0.04 0.04 0.04 0.04 0.03 0.03 0.03 0.04 0.04 0.04 0.03 0.04 0.05 0.06 0.06 0.07 0.08 0.05
0.06 0.07 0.07 0.07 0.07 0.06 0.05 0.05 0.05 0.04 0.04 0.03 0.03 0.04 0.04 0.04 0.04 0.04 0.03 0.04 0.04 0.04 0.05 0.04 0.03 0.03 0.03 0.03 0.03 0.03 0.02 0.02 0.04 0.05 0.05 0.05 0.06 0.06
0.06 0.06 0.06 0.06 0.06 0.06 0.06 0.05 0.05 0.04 0.04 0.04 0.04 0.04 0.03 0.03 0.03 0.04 0.04 0.04 0.04 0.04 0.05 0.05 0.03 0.03 0.03 0.03 0.02 0.01 0.02 0.02 0.03 0.04 0.05 0.05 0.05 0.05
0.04 0.04 0.04 0.05 0.05 0.05 0.05 0.05 0.04 0.04 0.04 0.04 0.04 0.04 0.04 0.04 0.03 0.03 0.03 0.03 0.03 0.03 0.04 0.05 0.03 0.02 0.02 0.02 0.02 0.01 0.01 0.01 0.02 0.03 0.04 0.05 0.05 0.05
0.03 0.03 0.03 0.03 0.03 0.04 0.04 0.04 0.04 0.04 0.04 0.04 0.04 0.04 0.04 0.04 0.03 0.03 0.03 0.03 0.03 0.03 0.04 0.04 0.03 0.02 0.02 0.02 0.02 0.02 0.01 0.01 0.01 0.02 0.03 0.05 0.05 0.05
0.03 0.02 0.02 0.03 0.03 0.03 0.03 0.03 0.03 0.03 0.03 0.03 0.03 0.03 0.04 0.04 0.04 0.03 0.02 0.03 0.03 0.03 0.03 0.04 0.04 0.03 0.03 0.02 0.01 0.01 0.01 0.01 0.01 0.01 0.02 0.03 0.04 0.04
0.03 0.03 0.02 0.02 0.02 0.02 0.03 0.03 0.03 0.03 0.03 0.03 0.03 0.03 0.03 0.03 0.04 0.04 0.03 0.03 0.02 0.03 0.03 0.04 0.05 0.05 0.04 0.02 0.01 0.01 0.01 0.01 0.01 0.01 0.01 0.02 0.02 0.02
MSLP
1018.26 1019.15 1019.95 1020.68 1021.36 1021.99 1022.58 1023.12 1023.63 1024.09 1024.52 1024.91 1025.29 1025.65 1026.01 1026.35 1026.70 1027.03 1027.35 1027.66 1027.95 1028.23 1028.50 1028.76 1029.02 1029.27 1029.52 1029.76 1029.98 1030.17 1030.34 1030.47 1030.58 1030.66 1030.73 1030.80 1030.87 1030.93
1017.66 1018.54 1019.35 1020.08 1020.76 1021.38 1021.97 1022.52 1023.03 1023.52 1023.98 1024.43 1024.87 1025.31 1025.74 1026.17 1026.57 1026.96 1027.32 1027.64 1027.93 1028.20 1028.45 1028.70 1028.94 1029.18 1029.43 1029.67 1029.90 1030.11 1030.29 1030.44 1030.57 1030.67 1030.76 1030.84 1030.91 1030.98
1017.04 1017.90 1018.68 1019.41 1020.09 1020.71 1021.30 1021.86 1022.39 1022.91 1023.42 1023.93 1024.44 1024.96 1025.47 1025.97 1026.44 1026.88 1027.26 1027.60 1027.89 1028.13 1028.36 1028.57 1028.78 1029.00 1029.22 1029.45 1029.68 1029.89 1030.09 1030.26 1030.40 1030.52 1030.62 1030.72 1030.80 1030.88
1016.36 1017.20 1017.97 1018.70 1019.38 1020.01 1020.61 1021.18 1021.74 1022.28 1022.84 1023.40 1023.98 1024.57 1025.15 1025.72 1026.25 1026.72 1027.14 1027.49 1027.77 1028.01 1028.20 1028.38 1028.56 1028.75 1028.94 1029.15 1029.36 1029.57 1029.77 1029.94 1030.10 1030.23 1030.35 1030.46 1030.57 1030.66
1015.63 1016.46 1017.24 1017.97 1018.66 1019.32 1019.93 1020.52 1021.10 1021.67 1022.25 1022.85 1023.47 1024.11 1024.74 1025.36 1025.94 1026.46 1026.90 1027.27 1027.56 1027.79 1027.98 1028.14 1028.29 1028.44 1028.61 1028.80 1028.99 1029.18 1029.37 1029.55 1029.71 1029.85 1029.99 1030.12 1030.24 1030.35
1014.88 1015.70 1016.49 1017.25 1017.97 1018.65 1019.30 1019.90 1020.49 1021.07 1021.66 1022.27 1022.91 1023.56 1024.22 1024.87 1025.48 1026.03 1026.52 1026.91 1027.23 1027.48 1027.67 1027.83 1027.97 1028.12 1028.27 1028.43 1028.60 1028.77 1028.94 1029.11 1029.27 1029.42 1029.56 1029.71 1029.85 1029.99
1014.09 1014.94 1015.76 1016.56 1017.33 1018.05 1018.72 1019.35 1019.94 1020.51 1021.09 1021.68 1022.30 1022.94 1023.59 1024.24 1024.87 1025.45 1025.96 1026.41 1026.76 1027.05 1027.28 1027.46 1027.62 1027.77 1027.91 1028.06 1028.21 1028.37 1028.52 1028.67 1028.82 1028.97 1029.12 1029.28 1029.44 1029.60
1013.30 1014.17 1015.04 1015.89 1016.72 1017.48 1018.19 1018.84 1019.43 1019.99 1020.53 1021.09 1021.66 1022.26 1022.88 1023.51 1024.14 1024.73 1025.28 1025.77 1026.18 1026.52 1026.81 1027.04 1027.24 1027.41 1027.56 1027.71 1027.84 1027.98 1028.12 1028.25 1028.39 1028.53 1028.69 1028.85 1029.03 1029.21
1012.49 1013.38 1014.30 1015.22 1016.10 1016.93 1017.68 1018.35 1018.95 1019.49 1020.00 1020.50 1021.01 1021.56 1022.13 1022.73 1023.34 1023.94 1024.52 1025.05 1025.52 1025.93 1026.28 1026.57 1026.82 1027.03 1027.20 1027.36 1027.49 1027.62 1027.74 1027.86 1027.99 1028.13 1028.28 1028.46 1028.64 1028.83
1011.65 1012.56 1013.51 1014.48 1015.43 1016.31 1017.12 1017.82 1018.44 1018.97 1019.46 1019.92 1020.38 1020.87 1021.40 1021.96 1022.55 1023.15 1023.74 1024.31 1024.83 1025.31 1025.72 1026.08 1026.38 1026.63 1026.84 1027.00 1027.15 1027.27 1027.38 1027.49 1027.62 1027.75 1027.91 1028.09 1028.28 1028.48
1010.80 1011.68 1012.65 1013.65 1014.65 1015.59 1016.45 1017.20 1017.85 1018.40 1018.89 1019.33 1019.77 1020.23 1020.72 1021.25 1021.82 1022.41 1023.02 1023.61 1024.18 1024.71 1025.18 1025.59 1025.94 1026.23 1026.46 1026.65 1026.80 1026.93 1027.04 1027.15 1027.28 1027.42 1027.58 1027.76 1027.96 1028.17
1009.95 1010.78 1011.72 1012.72 1013.74 1014.73 1015.63 1016.44 1017.14 1017.74 1018.25 1018.72 1019.17 1019.62 1020.10 1020.63 1021.19 1021.78 1022.40 1023.01 1023.61 1024.17 1024.67 1025.12 1025.51 1025.83 1026.09 1026.30 1026.46 1026.60 1026.72 1026.84 1026.97 1027.12 1027.29 1027.48 1027.68 1027.88
1009.18 1009.90 1010.77 1011.73 1012.74 1013.73 1014.68 1015.53 1016.29 1016.95 1017.53 1018.05 1018.54 1019.03 1019.54 1020.08 1020.65 1021.26 1021.88 1022.51 1023.12 1023.70 1024.23 1024.70 1025.10 1025.45 1025.73 1025.95 1026.13 1026.29 1026.42 1026.56 1026.70 1026.85 1027.03 1027.22 1027.42 1027.62
1008.59 1009.16 1009.91 1010.78 1011.72 1012.69 1013.63 1014.51 1015.32 1016.04 1016.70 1017.30 1017.86 1018.42 1018.99 1019.57 1020.18 1020.81 1021.45 1022.09 1022.71 1023.29 1023.83 1024.32 1024.73 1025.09 1025.38 1025.62 1025.82 1025.99 1026.15 1026.30 1026.45 1026.62 1026.80 1027.00 1027.19 1027.38
1008.31 1008.70 1009.27 1009.99 1010.82 1011.70 1012.59 1013.46 1014.29 1015.06 1015.78 1016.47 1017.12 1017.76 1018.40 1019.05 1019.71 1020.38 1021.05 1021.70 1022.33 1022.93 1023.47 1023.96 1024.38 1024.75 1025.06 1025.31 1025.53 1025.72 1025.89 1026.06 1026.23 1026.40 1026.59 1026.77 1026.96 1027.13
1008.47 1008.64 1009.00 1009.53 1010.18 1010.92 1011.71 1012.51 1013.31 1014.09 1014.85 1015.59 1016.32 1017.04 1017.76 1018.48 1019.20 1019.91 1020.62 1021.30 1021.94 1022.55 1023.10 1023.59 1024.03 1024.41 1024.73 1025.01 1025.24 1025.45 1025.64 1025.82 1026.00 1026.18 1026.36 1026.53 1026.70 1026.84
1009.16 1009.11 1009.25 1009.55 1009.98 1010.52 1011.14 1011.80 1012.51 1013.24 1013.98 1014.74 1015.50 1016.28 1017.05 1017.83 1018.60 1019.37 1020.11 1020.81 1021.48 1022.10 1022.67 1023.18 1023.63 1024.03 1024.37 1024.67 1024.93 1025.16 1025.36 1025.55 1025.74 1025.91 1026.08 1026.24 1026.38 1026.50
1010.43 1010.19 1010.09 1010.14 1010.32 1010.62 1011.01 1011.49 1012.04 1012.64 1013.31 1014.01 1014.76 1015.53 1016.33 1017.13 1017.94 1018.73 1019.49 1020.22 1020.91 1021.55 1022.14 1022.68 1023.15 1023.58 1023.95 1024.27 1024.56 1024.81 1025.03 1025.23 1025.42 1025.59 1025.74 1025.88 1026.00 1026.10
1012.24 1011.82 1011.52 1011.33 1011.24 1011.27 1011.41 1011.64 1011.97 1012.40 1012.92 1013.51 1014.17 1014.89 1015.65 1016.44 1017.24 1018.02 1018.79 1019.54 1020.24 1020.90 1021.51 1022.06 1022.57 1023.02 1023.43 1023.78 1024.10 1024.37 1024.62 1024.83 1025.02 1025.19 1025.33 1025.45 1025.55 1025.62
1014.45 1013.92 1013.44 1013.03 1012.70 1012.46 1012.33 1012.30 1012.38 1012.58 1012.90 1013.32 1013.84 1014.45 1015.12 1015.83 1016.57 1017.32 1018.07 1018.79 1019.49 1020.15 1020.77 1021.35 1021.88 1022.37 1022.80 1023.20 1023.54 1023.85 1024.12 1024.35 1024.55 1024.72 1024.86 1024.97 1025.06 1025.12
1016.89 1016.28 1015.68 1015.10 1014.56 1014.09 1013.70 1013.41 1013.23 1013.19 1013.28 1013.49 1013.83 1014.27 1014.80 1015.40 1016.04 1016.71 1017.39 1018.07 1018.73 1019.38 1019.99 1020.58 1021.12 1021.64 1022.11 1022.53 1022.92 1023.26 1023.55 1023.81 1024.03 1024.22 1024.37 1024.49 1024.58 1024.64
1019.36 1018.72 1018.04 1017.35 1016.65 1015.99 1015.39 1014.87 1014.46 1014.18 1014.04 1014.03 1014.16 1014.42 1014.77 1015.21 1015.72 1016.27 1016.85 1017.45 1018.06 1018.66 1019.25 1019.82 1020.37 1020.90 1021.39 1021.85 1022.27 1022.64 1022.98 1023.27 1023.53 1023.74 1023.91 1024.05 1024.16 1024.24
1021.64 1021.02 1020.32 1019.57 1018.77 1017.98 1017.22 1016.53 1015.93 1015.45 1015.10 1014.89 1014.82 1014.88 1015.05 1015.32 1015.67 1016.09 1016.54 1017.04 1017.56 1018.09 1018.63 1019.18 1019.71 1020.24 1020.75 1021.23 1021.68 1022.09 1022.47 1022.80 1023.10 1023.35 1023.56 1023.73 1023.87 1023.97
Thickness
5511 5513 5515 5516 5518 5521 5522 5523 5523 5522 5525 5528 5528 5530 5531 5532 5533 5534 5536 5537 5539 5540 5540 5539 5540 5540 5539 5538 5537 5535 5533 5532 5530 5529 5527 5526 5525 5523
5500 5502 5504 5505 5507 5509 5511 5513 5515 5515 5516 5519 5518 5520 5521 5522 5523 5524 5526 5528 5530 5530 5530 5531 5531 5530 5530 5529 5528 5527 5525 5523 5521 5520 5518 5517 5515 5514
5489 5491 5493 5494 5496 5498 5500 5502 5504 5505 5506 5508 5509 5510 5511 5511 5513 5515 5516 5518 5520 5521 5521 5521 5521 5521 5520 5519 5519 5518 5516 5514 5512 5511 5509 5508 5506 5504
5478 5479 5481 5483 5485 5487 5489 5491 5493 5495 5495 5496 5498 5499 5501 5502 5503 5505 5507 5509 5510 5511 5511 5512 5512 5512 5511 5510 5510 5508 5507 5505 5503 5501 5500 5498 5496 5494
5466 5468 5469 5471 5473 5475 5478 5480 5482 5484 5485 5486 5488 5489 5490 5492 5493 5495 5496 5498 5500 5501 5502 5502 5502 5502 5501 5501 5500 5498 5497 5496 5494 5492 5490 5488 5486 5484
5455 5457 5458 5460 5462 5464 5466 5469 5470 5472 5474 5475 5477 5478 5479 5480 5482 5483 5485 5487 5489 5491 5491 5491 5492 5491 5491 5490 5490 5488 5487 5485 5483 5481 5479 5477 5475 5473
5444 5445 5447 5449 5451 5454 5456 5457 5459 5460 5462 5464 5465 5466 5467 5468 5470 5472 5474 5475 5477 5478 5480 5481 5482 5481 5480 5479 5479 5478 5476 5474 5472 5471 5469 5467 5465 5462
5432 5434 5435 5437 5440 5442 5444 5446 5448 5449 5450 5452 5453 5454 5456 5457 5459 5460 5461 5462 5464 5467 5467 5469 5469 5470 5470 5469 5468 5467 5466 5464 5462 5460 5458 5456 5454 5451
5420 5422 5424 5426 5428 5430 5432 5434 5436 5438 5440 5441 5442 5444 5446 5447 5448 5449 5449 5449 5451 5453 5453 5456 5458 5458 5458 5458 5457 5456 5455 5453 5451 5449 5447 5445 5443 5440
5409 5411 5413 5415 5417 5418 5420 5422 5424 5426 5428 5429 5431 5434 5434 5435 5436 5437 5437 5437 5438 5439 5440 5442 5444 5445 5446 5446 5445 5444 5443 5442 5439 5437 5435 5433 5431 5429
5398 5400 5402 5404 5407 5408 5409 5411 5413 5414 5415 5417 5419 5420 5422 5424 5424 5424 5424 5423 5425 5426 5426 5428 5430 5431 5433 5433 5433 5432 5431 5429 5427 5425 5422 5420 5419 5417
5387 5389 5391 5394 5396 5397 5398 5400 5401 5403 5404 5405 5407 5408 5410 5412 5413 5413 5413 5412 5412 5413 5414 5414 5415 5415 5417 5420 5420 5419 5418 5416 5414 5412 5410 5408 5406 5405
5376 5378 5380 5382 5384 5386 5387 5389 5391 5392 5393 5394 5394 5395 5397 5398 5400 5401 5401 5401 5400 5400 5401 5400 5400 5400 5400 5403 5405 5405 5405 5403 5402 5400 5397 5396 5394 5393
5365 5367 5369 5370 5372 5374 5375 5377 5379 5380 5381 5381 5382 5383 5384 5385 5387 5388 5388 5388 5389 5389 5388 5387 5386 5386 5386 5387 5389 5391 5391 5390 5389 5387 5386 5384 5382 5381
5354 5357 5358 5360 5361 5362 5363 5364 5366 5367 5368 5369 5370 5370 5371 5372 5373 5374 5374 5374 5374 5374 5374 5374 5374 5374 5374 5375 5375 5376 5376 5377 5376 5375 5374 5372 5371 5371
5343 5345 5347 5348 5349 5350 5351 5352 5353 5355 5356 5357 5357 5357 5358 5358 5359 5360 5360 5360 5360 5360 5360 5360 5361 5362 5362 5362 5362 5362 5362 5362 5364 5363 5362 5362 5360 5360
5332 5333 5334 5336 5336 5337 5338 5340 5341 5343 5344 5345 5345 5345 5345 5345 5346 5347 5347 5347 5347 5347 5346 5347 5347 5348 5348 5348 5348 5349 5349 5350 5350 5350 5350 5351 5351 5350
5322 5322 5323 5324 5325 5326 5327 5328 5330 5331 5333 5333 5333 5333 5333 5333 5333 5334 5334 5334 5334 5334 5334 5333 5334 5334 5335 5335 5336 5337 5337 5337 5338 5337 5338 5338 5341 5341
5310 5311 5312 5313 5314 5315 5316 5317 5318 5320 5321 5321 5322 5322 5322 5321 5321 5321 5321 5321 5321 5321 5320 5319 5320 5320 5321 5323 5324 5324 5325 5325 5325 5325 5326 5327 5329 5332
5298 5299 5301 5302 5303 5304 5305 5305 5306 5308 5309 5310 5310 5310 5310 5310 5310 5310 5310 5309 5309 5308 5308 5307 5307 5308 5309 5311 5311 5311 5312 5313 5313 5314 5316 5317 5319 5322
5286 5287 5289 5290 5291 5292 5293 5294 5295 5296 5297 5298 5298 5299 5299 5299 5300 5300 5300 5299 5298 5297 5297 5297 5297 5297 5297 5298 5299 5302 5302 5302 5303 5304 5306 5307 5309 5312
5274 5276 5277 5278 5280 5281 5281 5282 5284 5285 5285 5286 5287 5288 5289 5289 5289 5290 5290 5289 5289 5288 5288 5287 5287 5287 5287 5288 5290 5292 5293 5294 5295 5295 5296 5297 5297 5300
5263 5264 5266 5267 5268 5270 5271 5272 5273 5274 5275 5276 5277 5278 5278 5279 5279 5280 5280 5280 5279 5278 5278 5278 5277 5277 5278 5279 5280 5282 5282 5284 5285 5287 5289 5290 5291 5292